#timestamp,LO_Frequency,Hit,StdDev 
1524279615.2,286047001.2,N
1524279635.0,286047000.8,N
1524279635.9,286047000.8,N
1524279655.8,286046999.9,N
1524279675.6,286046998.5,N
1524279695.4,286046998.2,N
1524279715.3,286046998.5,N
1524279735.1,286046999.2,N
1524279755.8,286046999.6,N
1524279775.7,286046999.1,N
1524279795.5,286047001.1,N
1524279815.4,286047000.8,N
1524279835.2,286046998.1,N
1524279855.0,286047000.8,N
1524279855.9,286047000.8,N
1524279875.8,286046999.9,N
1524279895.6,286047001.0,N
1524279915.4,286046998.7,N
1524279935.3,286047000.9,N
1524279955.1,286047001.1,N
1524279975.9,286047000.6,N
1524279995.7,286047000.4,N
1524280015.5,286046998.5,N
1524280035.4,286047000.2,N
1524280055.2,286047001.0,N
1524280075.0,286046998.2,N
1524280075.9,286046998.2,N
1524280095.8,286046998.7,N
1524280115.6,286046999.4,N
1524280135.5,286046999.1,N
1524280155.3,286047000.0,N
1524280175.1,286047000.9,N
1524280195.9,286046998.7,N
1524280215.7,286046999.8,N
1524280235.5,286046999.8,N
1524280255.4,286046999.9,N
1524280275.2,286047011.9,Y
1524280295.1,286046999.7,P
1524280296.0,286046999.7,P
1524280315.8,286047000.3,P
1524280335.6,286047001.2,Y
1524280355.5,286047002.8,P
1524280375.3,286046999.2,N
1524280395.2,286046999.4,N
1524280415.9,286046996.8,N
1524280435.7,286046999.6,N
1524280455.6,286046999.6,N
1524280475.4,286046996.8,N
1524280495.2,286046999.6,N
1524280515.1,286046996.6,N
1524280516.0,286046996.6,N
1524280535.8,286046998.4,N
1524280555.7,286046998.4,N
1524280575.5,286047000.0,N
1524280595.3,286047001.6,N
1524280615.2,286047001.5,N
1524280635.0,286047002.8,N
1524280635.9,286047002.8,N
1524280655.8,286047001.3,N
1524280675.6,286047005.8,N
1524280695.4,286047005.1,N
1524280715.3,286047005.9,N
1524280735.1,286047006.0,N
1524280755.8,286047006.0,N
1524280775.7,286047002.9,N
1524280795.5,286047003.0,N
1524280815.4,286047005.3,N
1524280835.2,286047005.5,N
1524280855.0,286047005.2,N
1524280855.9,286047005.2,N
1524280875.8,286047006.8,N
1524280895.6,286047007.3,N
1524280915.4,286047005.2,N
1524280935.3,286047007.0,N
1524280955.1,286047004.7,N
1524280975.9,286047005.1,N
1524280995.7,286047007.6,N
1524281015.5,286047006.4,N
1524281035.4,286047009.1,N
1524281055.2,286047007.3,N
1524281075.0,286047009.0,Y
1524281076.0,286047009.0,P
1524281095.8,286047003.1,N
1524281115.6,286047004.2,N
1524281135.5,286047001.3,N
1524281155.3,286047001.4,N
1524281175.1,286047004.0,N
1524281195.9,286047003.4,N
1524281215.7,286047004.1,N
1524281235.6,286047006.0,N
1524281255.4,286047005.4,N
1524281275.2,286047004.7,N
1524281295.1,286047005.6,N
1524281296.0,286047005.6,N
1524281315.8,286047005.9,Y
1524281335.6,286046999.7,P
1524281355.5,286046999.7,N
1524281375.3,286047002.4,N
1524281395.2,286047001.9,N
1524281415.9,286047002.4,N
1524281435.7,286047004.4,N
1524281455.6,286047004.3,N
1524281475.4,286047004.2,N
1524281495.2,286047003.9,N
1524281515.1,286047003.9,N
1524281516.0,286047003.9,N
1524281535.8,286047003.9,N
1524281555.7,286047001.8,N
1524281575.5,286047001.8,N
1524281595.3,286047004.1,N
1524281615.2,286046999.7,N
1524281635.0,286047000.2,N
1524281635.9,286047000.2,N
1524281655.7,286047002.8,N
1524281675.6,286047002.2,N
1524281695.4,286047001.9,N
1524281715.3,286047003.9,N
1524281735.1,286047001.9,N
1524281736.0,286047001.9,N
1524281755.8,286046999.9,N
1524281775.7,286047002.3,N
1524281795.5,286047001.3,N
1524281815.3,286047004.0,N
1524281835.2,286047001.6,N
1524281855.0,286047002.4,N
1524281855.9,286047002.4,N
1524281875.8,286047004.1,N
1524281895.6,286047003.8,N
1524281915.4,286047004.0,N
1524281935.3,286047004.3,Y
1524281955.1,286047002.4,P
1524281975.9,286047002.7,P
1524281995.7,286047000.1,N
1524282015.5,286047000.5,N
1524282035.4,286047000.3,N
1524282055.2,286047000.2,N
1524282075.0,286047001.2,N
1524282075.9,286047001.2,N
1524282095.8,286047002.7,N
1524282115.6,286047000.4,N
1524282135.5,286047002.3,N
1524282155.3,286047002.1,N
1524282175.1,286047001.4,N
1524282195.9,286047002.1,N
1524282215.7,286047002.5,N
1524282235.5,286047002.1,N
1524282255.4,286046999.8,N
1524282275.2,286047001.7,N
1524282295.1,286047004.0,Y
1524282296.0,286047004.0,P
1524282315.8,286047002.6,N
1524282335.6,286047000.2,N
1524282355.5,286047000.2,N
1524282375.3,286047001.5,N
1524282395.2,286047001.6,N
1524282415.9,286047001.6,N
1524282435.7,286047001.3,N
1524282455.6,286047001.6,N
1524282475.4,286046999.8,N
1524282495.2,286047000.0,N
1524282515.1,286047000.1,N
1524282516.0,286047000.1,N
1524282535.8,286047001.0,N
1524282555.7,286047000.3,N
1524282575.5,286047000.0,N
1524282595.3,286047001.9,N
1524282615.2,286047002.0,N
1524282635.0,286047004.1,Y
1524282635.9,286047004.1,P
1524282655.8,286046999.7,N
1524282675.6,286046999.7,N
1524282695.4,286047002.5,N
1524282715.3,286047002.3,N
1524282735.1,286047001.6,N
1524282755.8,286047000.1,N
1524282775.7,286046999.9,N
1524282795.5,286047000.3,N
1524282815.4,286047000.2,N
1524282835.2,286047000.6,N
1524282855.0,286047000.5,N
1524282855.9,286047000.5,N
1524282875.8,286046998.1,N
1524282895.6,286047000.9,N
1524282915.4,286047001.0,N
1524282935.3,286046999.8,N
1524282955.1,286046999.7,N
1524282975.9,286046999.7,N
1524282995.7,286047000.3,N
1524283015.5,286046998.3,N
1524283035.4,286047001.2,N
1524283055.2,286046998.8,N
1524283075.0,286047000.8,N
1524283075.9,286047000.8,N
1524283095.8,286046998.6,N
1524283115.6,286046998.2,N
1524283135.5,286047001.0,N
1524283155.3,286047000.2,N
1524283175.1,286047002.0,N
1524283195.9,286047000.5,N
